www.pogodaiklimat.ru

Погода и климат >> Архив погоды >> Россия >> Якутия >> Черский


ПОГОДА в Черском

  • Прогноз погоды в Черском
  • Монитор погоды в Черском
  • Климат города

АРХИВ ПОГОДЫ в Черском

Время (UTC), дата Ветер
(напр.,м/с)
 
Видим.   Явления Облачность Т
(С)
Тd
(С)
f
(%)
Тe
(С)
Тes
(С)
Комфортность P
(гПа)
Po
(гПа)
Тmin
(С)
Tmax
(С)
R
(мм)
S
(см)
03 16.03 Ю 2 20 км ясно -13.8 -19.0 65 -19 -16 1019.2 1015.8
06 16.03 ЮВ 2 20 км ясно -13.9 -19.1 65 -19 -19 1019.2 1015.8
09 16.03 В 2 20 км ясно -21.1 -2 -2 1019.2 1015.8 -13.5
12 16.03 ЮВ 1 4000 м ясно -16.2 -23.2 55 -19 -19 1018.9 1015.5
15 16.03 ЮВ 1 4000 м ясно -18.7 -24.5 60 -22 -22 1018.5 1015.1
18 16.03 штиль 0 4000 м ясно -17.7 -20.3 80 -18 -18 1017.8 1014.4
21 16.03 ЮВ 2 20 км 8/8 1000 м
[Sc diur, vesp]
-17.2 -21.4 70 -23 -22 1017.3 1013.9 -18.7 71
00 17.03 ЮВ 3 20 км {снег} 3/3 600 м
[Sc]
-8.4 -12.6 72 -14 -13 1017.0 1013.7
03 17.03 ЮВ 4 20 км ясно -6.4 -12.9 60 -13 -11 1016.4 1013.1
06 17.03 ЮВ 1 20 км ясно -7.1 -13.4 61 -9 -9 1016.5 1013.2
09 17.03 штиль 0 20 км слабый снег 8/8 420 м
[Sc]
-9.1 -14.1 67 -9 -9 1017.8 1014.5 -6.1 0.0
12 17.03 Ю 1 4000 м {снег} ясно -14.5 -15.8 90 -17 -17 1019.8 1016.4
15 17.03 штиль 0 4000 м ясно -17.9 -19.1 90 -18 -18 1021.7 1018.3
18 17.03 ЮВ 2 4000 м туман на расстоянии 3/0
[As trans]
-19.8 -20.4 95 -26 -26 1022.9 1019.4
21 17.03 ЮВ 3 20 км ясно -20.5 -21.1 95 -28 -28 1023.6 1020.1 -21.6 0.0 71
00 18.03 ЮВ 3 20 км ясно -14.9 -16.2 90 -21 -19 1023.8 1020.4
03 18.03 В 2 20 км ясно -9.3 -15.5 61 -14 -11 1022.0 1018.7
06 18.03 ЮВ 3 20 км 4/0
[Ci fib]
-8.0 -15.4 55 -13 -13 1020.0 1016.7
09 18.03 ЮВ 3 20 км 4/0
[Ci fib]
-10.1 -16.4 60 -16 -16 1019.2 1015.9 -8.0
12 18.03 ЮВ 3 4000 м ясно -14.3 -18.6 70 -21 -21 1017.4 1014.0
15 18.03 ЮВ 3 4000 м ясно -16.4 -19.8 75 -23 -23 1017.4 1014.0
18 18.03 штиль 0 4000 м 1/0
[As op]
-16.6 -19.2 80 -17 -17 1017.6 1014.2
21 18.03 СЗ 3 20 км ясно -22.9 -24.8 84 -31 -31 опасность
обморожения
1018.9 1015.4 -23.4 71
00 19.03 С 3 20 км ясно -23.0 -26.3 74 -31 -29 опасность
обморожения
1020.8 1017.3
03 19.03 С 2 20 км ясно -20.7 -24.0 75 -27 -24 1021.3 1017.8
06 19.03 ЮВ 1 20 км ясно -18.4 -23.4 65 -21 -21 1022.1 1018.7
09 19.03 В 2 20 км ясно -21.8 -25.0 75 -28 -28 1023.0 1019.5 -18.4
12 19.03 ЮВ 4 4000 м ясно -21.4 -24.7 75 -31 -31 опасность
обморожения
1022.3 1018.8
15 19.03 ЮВ 5 4000 м ясно -20.5 -23.8 75 -31 -31 опасность
обморожения
1022.3 1018.8
18 19.03 В 5 4000 м ясно -19.8 -22.4 80 -30 -30 1022.7 1019.2
21 19.03 ЮВ 4 20 км ясно -21.4 -23.9 80 -31 -30 опасность
обморожения
1022.7 1019.2 -21.8 70
00 20.03 ЮВ 4 20 км ясно -14.8 -19.1 70 -23 -21 1022.4 1019.0
03 20.03 ЮВ 4 20 км ясно -10.9 -17.1 60 -18 -16 1021.4 1018.1
06 20.03 ЮВ 3 20 км ясно -10.4 -16.7 60 -16 -16 1020.4 1017.1
09 20.03 ЮВ 2 20 км ясно -14.1 -19.2 65 -19 -19 1020.6 1017.2 -10.4
12 20.03 ЮВ 4 4000 м ясно -16.4 -20.6 70 -25 -25 1020.9 1017.5
15 20.03 ЮВ 4 4000 м ясно -16.2 -19.6 75 -24 -24 1020.6 1017.2
18 20.03 ЮВ 4 4000 м ясно -17.3 -20.7 75 -26 -26 1020.5 1017.1
21 20.03 ЮВ 4 20 км ясно -19.1 -21.7 80 -28 -27 1021.0 1017.5 -19.7 70
00 21.03 ЮВ 4 20 км 3/0
[As trans]
-12.7 -17.9 65 -20 -18 1020.6 1017.3
03 21.03 ЮВ 4 20 км 3/0
[Cs]
-9.8 -16.3 59 -17 -15 1020.2 1016.9
06 21.03 ЮВ 3 20 км 6/0
[Ac lent Ci fib]
-10.1 -16.4 60 -16 -16 1019.8 1016.5
09 21.03 ЮВ 3 20 км 9/0
[Ac As]
-12.2 -17.4 65 -18 -18 1019.8 1016.5 -9.3
12 21.03 ЮВ 4 4000 м слабый снег 10/10 450 м
[Sc]
-12.5 -16.8 70 -20 -20 1019.8 1016.5
15 21.03 ЮВ 4 4000 м слабый снег 10/10 330 м
[Sc]
-12.9 -16.4 75 -20 -20 1019.7 1016.4
18 21.03 ЮВ 5 4000 м снег 10/10 840 м
[Sc]
-13.3 -16.0 80 -22 -22 1019.7 1016.3
21 21.03 ЮВ 5 4000 м снег 10/10 400 м
[Sc]
-12.6 -13.9 90 -21 -21 1019.6 1016.3 -13.3 1 70
00 22.03 ЮВ 5 20 км {снег} 9/4 300 м
[Sc Ac trans]
-11.1 -13.1 85 -19 -19 1019.8 1016.5
03 22.03 ЮВ 4 10 км слабый снег 9/3 300 м
[Sc Ac trans Ci fib]
-8.8 -10.7 86 -16 -15 1019.6 1016.3
06 22.03 Ю 3 20 км слабый снег 10/4 300 м
[Sc As trans]
-7.5 -10.1 82 -13 -13 1019.4 1016.1
09 22.03 ЮВ 3 4000 м слабый снег 10/10 360 м
[Sc]
-8.5 -9.2 95 -14 -14 1020.1 1016.8 -7.2 0.4
12 22.03 ЮВ 3 4000 м снег 10/10 360 м
[Sc]
-9.6 -10.4 94 -16 -16 1020.2 1016.9
15 22.03 ЮВ 3 4000 м слабый снег 10/10 360 м
[Sc]
-10.4 -11.0 95 -16 -16 1020.2 1016.9
18 22.03 ЮВ 3 4000 м {снег} 8/8 420 м
[Sc]
-12.1 -12.7 95 -18 -18 1020.2 1016.9
21 22.03 ЮВ 4 20 км 9/4 400 м
[Sc Ac lent]
-12.0 -13.3 90 -19 -19 1020.3 1017.0 -12.6 1 75

 

Местоположение метеостанции Черский (Якутия, Россия): широта 68.73 долгота 161.30 высота над уровнем моря 28 м.

В архиве по умолчанию представлена погода в Черском за последнюю неделю. Архивные данные за месяц целиком и за предыдущие месяцы, начиная с января 2011 года, Вы можете получить, выбрав интересующий диапазон дат из раскрывающегося списка и нажав кнопку "Ввод!".

Внимание! Время в таблицах - всемирное. Для получения местного времени необходимо прибавить поправку, которая в Черском равна 11 ч.

Смотрите также архив погоды в соседних городах и на ближайших метеорологических станциях:

Погода в Анюйске (Чукотка, Россия) (43 км)
Погода в Константиновской (Чукотка, Россия) (65 км)
Погода в Бухте Амбарчик (Чукотка, Россия) (107 км)
Погода в Колымской (Якутия, Россия) (109 км)
Погода на Островном (Чукотка, Россия) (133 км)
Погода в Билибино (Чукотка, Россия) (222 км)
Погода в Раучуе (Чукотка, Россия) (223 км)
Погода в Баимке (Чукотка, Россия) (274 км)
Погода в Андрюшкино (Якутия, Россия) (276 км)
Погода на Айон Острове (Чукотка, Россия) (291 км)

Пояснения к столбцам:

Ветер - указаны скорость ветра в м/с - средняя за 10 мин, порывы в срок и между сроками (в фигурных скобках) и направление, откуда дует ветер: С - северный, СВ - северо-восточный, В - восточный, ЮВ - юго-восточный, Ю - южный, ЮЗ - юго-западный, З - западный, СЗ - северо-западный.
Видимость - горизонтальная дальность видимости в метрах или километрах. При видимости от 1 до 10 км при отсутствии осадков обычно наблюдается дымка, при ухудшении видимости до 1 км и менее - туман. В сухую погоду видимость может ухудшаться дымом, пылью или мглою.
Явления - указаны атмосферные явления, наблюдавшиеся в срок или в последний час перед сроком; фигурными скобками обозначены явления, наблюдавшиеся между сроками (за 1-3 часа до срока); квадратными скобками обозначены град или гололедные отложения с указанием их диаметра в мм.
Облачность - указаны через наклонную черту общая и нижняя облачность в баллах и высота нижней границы облаков в метрах; квадратными скобками обозначены формы облаков: Ci - перистые, Cs - перисто-слоистые, Cc - перисто-кучевые, Ac - высококучевые, As - высокослоистые, Sc - слоисто-кучевые, Ns - слоисто-дождевые, Cu - кучевые, Cb - кучево-дождевые. Подробнее классификацию облаков см. в Атласе облаков (PDF).
T - Температура воздуха - температура, измеренная на высоте 2 м над землей.
Td - Температура точки росы - температура, при понижении до которой содержащийся в воздухе водяной пар достигнет насыщения.
f - Относительная влажность воздуха - влажноcть воздуха, измеренная на высоте 2 м над землей.
Te - Эффективная температура - температура, которую ощущает одетый по сезону человек в тени. Характеристика душности погоды. При расчете учитывается влияние влажности воздуха и скорости ветра на теплоощущения человека.
Tes - Эффективная температура на солнце - температура, которую ощущает человек, с поправкой на солнечный нагрев. Характеристика знойности погоды. Зависит от высоты солнца над горизонтом, облачности и скорости ветра. Ночью, в пасмурную погоду, а также при ветре 12 м/с и более поправка равна нулю.
P - Атмосферное давление - приведенное к уровню моря атмосферное давление.
Po - Атмосферное давление - измеренное на уровне метеостанции атмосферное давление.
Tmin - Минимальная температура - минимум температуры воздуха на высоте 2 м над землей.
Tmax - Максимальная температура - максимум температуры воздуха на высоте 2 м над землей.
R - Количество осадков - Количество выпавших осадков, мм. При наведении курсора мыши на число - период времени, за который выпало указанное количество осадков.
S - Снежный покров - Высота снежного покрова, см. При наведении курсора мыши на число - состояние снежного покрова и степень покрытия местности в баллах.